1501603201.03,8422,26.75,75076.3,19.39,-11.81,-11.73,0,*7E
1501603202.26,8423,26.75,75076.5,19.41,-11.41,-11.37,0,*7C
1501603203.5,8424,26.81,75080.3,19.41,-11.51,-11.37,0,*7A
1501603204.78,8425,26.75,75076.5,19.43,-11.59,-11.51,0,*71
1501603206.03,8426,26.75,75076.8,19.41,-11.77,-11.55,0,*78
1501603207.31,8427,26.75,75076.3,19.43,-11.73,-11.63,0,*7A
1501603208.58,8428,26.75,75078.0,19.43,-12.11,-11.97,0,*79
1501603209.84,8429,26.81,75080.3,19.43,-12.35,-12.21,0,*70
1501603211.09,8430,26.75,75076.5,19.43,-12.03,-11.89,0,*7C
1501603212.36,8431,26.81,75082.8,19.43,-11.77,-11.73,0,*78
1501603213.64,8432,26.75,75076.3,19.43,-11.73,-11.63,0,*7E
1501603214.92,8433,26.81,75080.5,19.43,-11.63,-11.51,0,*7F
1501603216.14,8434,26.75,75078.0,19.45,-11.59,-11.45,0,*72
1501603217.37,8435,26.75,75076.8,19.45,-11.63,-11.45,0,*7A
1501603218.59,8436,26.75,75078.0,19.45,-11.45,-11.37,0,*78
1501603219.84,8437,26.75,75076.0,19.45,-11.37,-11.33,0,*78
1501603221.05,8438,26.81,75078.8,19.47,-11.19,-11.11,0,*79
1501603222.33,8439,26.75,75078.0,19.47,-11.33,-11.29,0,*7B
1501603223.58,8440,26.75,75078.8,19.49,-11.55,-11.51,0,*74
1501603224.8,8441,26.81,75080.8,19.53,-11.45,-11.37,0,*7F
1501603226.05,8442,26.75,75078.8,19.49,-11.89,-11.77,0,*73
1501603227.3,8443,26.81,75078.3,19.49,-12.11,-12.07,0,*74
1501603228.55,8444,26.75,75078.8,19.49,-12.65,-12.61,0,*70
1501603229.78,8445,26.81,75076.5,19.49,-12.25,-12.11,0,*72
1501603231.0,8446,26.81,75078.5,19.53,-12.03,-11.85,0,*70
1501603232.21,8447,26.75,75076.8,19.53,-12.21,-12.21,0,*7C
1501603233.44,8448,26.75,75078.8,19.49,-12.47,-12.35,0,*7D
1501603234.67,8449,26.75,75078.0,19.49,-12.39,-12.35,0,*75
1501603235.9,8450,26.75,75078.0,19.49,-12.25,-12.11,0,*76
1501603237.13,8451,26.75,75078.0,19.49,-12.53,-12.47,0,*75
1501603238.35,8452,26.75,75076.0,19.47,-12.97,-12.93,0,*79
1501603239.62,8453,26.81,75076.8,19.47,-12.53,-12.15,0,*7E
1501603240.89,8454,26.75,75078.8,19.47,-11.97,-11.85,0,*78
1501603242.15,8455,26.75,75078.8,19.49,-12.07,-11.93,0,*7A
1501603243.38,8456,26.81,75076.0,19.49,-12.47,-12.53,0,*72
1501603244.61,8457,26.75,75076.3,19.49,-12.21,-12.11,0,*75
1501603245.87,8458,26.81,75080.0,19.49,-11.93,-11.81,0,*7A
1501603247.09,8459,26.75,75076.5,19.53,-11.59,-11.45,0,*7E
1501603248.33,8460,26.75,75078.0,19.53,-11.85,-11.77,0,*74
1501603249.57,8461,26.75,75078.3,19.53,-11.85,-11.77,0,*75
1501603250.77,8462,26.75,75076.8,19.53,-12.29,-12.21,0,*73
1501603251.99,8463,26.81,75080.5,19.49,-12.21,-12.03,0,*71
1501603253.2,8464,26.81,75080.0,19.53,-12.03,-11.97,0,*73
1501603254.45,8465,26.81,75082.5,19.53,-11.89,-11.77,0,*7D
1501603255.7,8466,26.81,75078.8,19.53,-11.77,-11.63,0,*7A
1501603256.94,8467,26.81,75078.8,19.53,-11.89,-11.73,0,*7B
1501603258.16,8468,26.81,75078.0,19.53,-12.07,-12.03,0,*75
1501603259.41,8469,26.81,75076.8,19.53,-12.35,-12.15,0,*72
1501603260.66,8470,26.81,75076.5,19.55,-12.35,-12.21,0,*7B
1501603261.89,8471,26.81,75076.3,19.53,-12.21,-12.07,0,*7D
1501603263.11,8472,26.81,75080.3,19.53,-12.35,-12.29,0,*77
1501603264.34,8473,26.81,75078.5,19.53,-12.29,-12.15,0,*74
1501603265.54,8474,26.75,75076.0,19.53,-12.29,-12.21,0,*74
1501603266.73,8475,26.81,75082.5,19.53,-12.43,-12.43,0,*7D
1501603267.95,8476,26.81,75076.5,19.53,-12.57,-12.43,0,*7B
1501603269.18,8477,26.81,75078.8,19.53,-12.21,-12.07,0,*7B
1501603270.41,8478,26.81,75080.3,19.53,-12.35,-12.21,0,*75
1501603271.63,8479,26.81,75082.8,19.53,-12.15,-12.03,0,*76
1501603272.87,8480,26.81,75076.0,19.53,-11.89,-11.85,0,*7B
1501603274.1,8481,26.81,75078.5,19.53,-12.03,-11.89,0,*77
1501603275.37,8482,26.81,75076.5,19.55,-11.85,-11.85,0,*73
1501603276.63,8483,26.81,75078.3,19.55,-12.15,-12.15,0,*72
1501603277.86,8484,26.81,75078.5,19.53,-12.93,-12.75,0,*7B
1501603279.06,8485,26.75,75078.0,19.53,-12.93,-12.93,0,*72
1501603280.28,8486,26.81,75076.3,19.53,-13.01,-12.93,0,*7B
1501603281.51,8487,26.81,75076.8,19.53,-12.71,-12.47,0,*75
1501603282.75,8488,26.81,75078.3,19.53,-12.57,-12.57,0,*7F
1501603283.97,8489,26.81,75078.3,19.49,-12.89,-12.65,0,*77
1501603285.23,8490,26.81,75078.5,19.49,-12.65,-12.53,0,*78
1501603286.47,8491,26.81,75080.5,19.53,-11.73,-11.73,0,*77
1501603287.66,8492,26.81,75078.8,19.53,-11.23,-11.11,0,*75
1501603288.91,8493,26.81,75078.3,19.53,-11.59,-11.51,0,*7D
1501603290.15,8494,26.81,75078.5,19.53,-11.59,-11.51,0,*7A
1501603291.4,8495,26.81,75078.5,19.57,-11.93,-11.73,0,*79
1501603292.63,8496,26.81,75076.5,19.57,-12.35,-12.29,0,*79
1501603293.85,8497,26.81,75080.0,19.55,-12.43,-12.43,0,*77
1501603295.11,8498,26.81,75082.0,19.55,-12.61,-12.57,0,*7D
1501603296.39,8499,26.81,75078.3,19.55,-12.57,-12.57,0,*79
1501603297.58,8500,26.81,75080.0,19.57,-12.43,-12.39,0,*77
1501603298.83,8501,26.81,75076.5,19.55,-12.03,-11.89,0,*78
1501603300.1,8502,26.81,75078.3,19.55,-11.97,-11.89,0,*75
1501603301.34,8503,26.81,75078.8,19.57,-11.81,-11.81,0,*79
1501603302.58,8504,26.81,75078.5,19.57,-11.85,-11.81,0,*7A
1501603303.85,8505,26.81,75080.0,19.55,-12.07,-11.97,0,*77
1501603305.09,8506,26.81,75076.8,19.57,-11.85,-11.73,0,*75
1501603306.34,8507,26.81,75076.5,19.57,-11.85,-11.73,0,*74
1501603307.61,8508,26.81,75076.5,19.59,-11.93,-11.81,0,*7F
1501603308.85,8509,26.81,75076.8,19.59,-12.03,-11.89,0,*7C
1501603310.08,8510,26.81,75076.5,19.61,-12.35,-12.21,0,*7B
1501603311.35,8511,26.81,75078.5,19.59,-12.83,-12.71,0,*79
1501603312.58,8512,26.81,75076.8,19.59,-12.89,-12.65,0,*75
1501603313.83,8513,26.81,75076.8,19.59,-12.03,-11.93,0,*7C
1501603315.05,8514,26.81,75078.8,19.59,-12.39,-12.29,0,*70
1501603316.32,8515,26.81,75080.5,19.59,-12.11,-12.11,0,*70
1501603317.55,8516,26.81,75076.3,19.61,-12.21,-12.11,0,*7B
1501603318.79,8517,26.81,75078.8,19.59,-12.53,-12.43,0,*73
1501603320.02,8518,26.81,75080.0,19.59,-12.29,-12.25,0,*71
1501603321.24,8519,26.81,75076.0,19.61,-12.53,-12.47,0,*72
1501603322.46,8520,26.81,75082.5,19.59,-12.29,-12.25,0,*7A
1501603323.69,8521,26.81,75082.5,19.59,-12.29,-12.29,0,*77
1501603324.88,8522,26.81,75080.0,19.61,-12.97,-12.97,0,*7F
1501603326.12,8523,26.81,75080.0,19.59,-13.87,-13.73,0,*7E
1501603327.32,8524,26.81,75080.3,19.57,-13.23,-13.11,0,*7D
1501603328.54,8525,26.81,75078.8,19.57,-12.93,-12.83,0,*7C
1501603329.79,8526,26.81,75076.5,19.55,-13.01,-13.07,0,*7A
1501603330.98,8527,26.81,75078.3,19.57,-13.15,-13.19,0,*73
1501603332.19,8528,26.81,75080.3,19.57,-13.51,-13.51,0,*70
1501603333.41,8529,26.81,75078.3,19.57,-13.83,-13.73,0,*7E
1501603334.62,8530,26.81,75082.0,19.55,-13.47,-13.43,0,*7F
1501603335.84,8531,26.81,75080.8,19.55,-13.15,-13.07,0,*79
1501603337.06,8532,26.81,75078.8,19.57,-12.97,-12.79,0,*7B
1501603338.31,8533,26.81,75076.3,19.55,-12.89,-12.71,0,*7F
1501603339.54,8534,26.81,75080.5,19.55,-12.93,-12.89,0,*74
1501603340.73,8535,26.81,75078.5,19.53,-13.07,-12.93,0,*74
1501603341.99,8536,26.81,75076.3,19.55,-13.33,-13.19,0,*75
1501603343.2,8537,26.81,75076.5,19.53,-13.43,-13.29,0,*76
1501603344.45,8538,26.81,75076.5,19.53,-13.01,-12.83,0,*7E
1501603345.7,8539,26.81,75076.0,19.53,-12.83,-12.71,0,*79
1501603346.97,8540,26.81,75076.3,19.55,-13.01,-13.01,0,*7C
1501603348.19,8541,26.81,75076.0,19.53,-12.89,-12.75,0,*78
1501603349.44,8542,26.81,75082.3,19.55,-13.01,-12.89,0,*7F
1501603350.71,8543,26.81,75078.0,19.55,-12.83,-12.71,0,*72
1501603351.95,8544,26.81,75078.5,19.53,-12.61,-12.57,0,*7B
1501603353.18,8545,26.81,75078.0,19.53,-12.89,-12.75,0,*7C
1501603354.41,8546,26.81,75080.0,19.49,-12.97,-12.79,0,*77
1501603355.63,8547,26.81,75082.3,19.53,-12.93,-12.83,0,*7C
1501603356.86,8548,26.81,75078.5,19.53,-13.29,-13.19,0,*71
1501603358.08,8549,26.81,75080.0,19.53,-12.89,-12.75,0,*70
1501603359.31,8550,26.81,75080.0,19.55,-12.93,-12.89,0,*76
1501603360.52,8551,26.81,75080.8,19.49,-13.15,-13.01,0,*74
1501603361.74,8552,26.81,75076.3,19.53,-13.43,-13.29,0,*75
1501603362.96,8553,26.81,75076.3,19.53,-13.47,-13.33,0,*7B
1501603364.16,8554,26.81,75082.5,19.49,-13.23,-13.11,0,*75
1501603365.37,8555,26.81,75076.3,19.49,-12.97,-12.89,0,*7A
1501603366.59,8556,26.81,75076.3,19.49,-13.33,-13.11,0,*76
1501603367.85,8557,26.81,75076.8,19.49,-12.79,-12.75,0,*7B
1501603369.08,8558,26.81,75076.3,19.49,-12.53,-12.39,0,*74
1501603370.28,8559,26.81,75078.3,19.49,-12.39,-12.39,0,*79
1501603371.51,8560,26.81,75076.8,19.49,-12.25,-12.07,0,*73
1501603372.73,8561,26.81,75076.5,19.53,-12.03,-11.89,0,*78
1501603373.96,8562,26.81,75080.0,19.49,-12.03,-11.93,0,*7B
1501603375.2,8563,26.81,75080.0,19.53,-12.07,-11.97,0,*71
1501603376.45,8564,26.81,75078.5,19.53,-12.71,-12.57,0,*78
1501603377.72,8565,26.81,75076.8,19.55,-12.61,-12.61,0,*7B
1501603378.94,8566,26.81,75082.0,19.53,-12.47,-12.35,0,*7B
1501603380.16,8567,26.81,75080.8,19.53,-12.89,-12.83,0,*75
1501603381.41,8568,26.81,75082.5,19.49,-12.75,-12.61,0,*7E
1501603382.66,8569,26.81,75078.5,19.53,-12.61,-12.61,0,*71
1501603383.91,8570,26.81,75080.3,19.53,-12.75,-12.71,0,*7D
1501603385.11,8571,26.81,75080.0,19.53,-13.07,-12.89,0,*7F
1501603386.34,8572,26.81,75082.0,19.53,-12.93,-12.71,0,*77
1501603387.58,8573,26.81,75082.8,19.53,-12.75,-12.61,0,*7F
1501603388.83,8574,26.81,75078.8,19.53,-12.75,-12.61,0,*78
1501603390.03,8575,26.81,75076.0,19.49,-13.07,-12.97,0,*7F
1501603391.23,8576,26.81,75076.0,19.53,-13.11,-13.11,0,*7F
1501603392.42,8577,26.81,75082.0,19.53,-13.19,-13.07,0,*71
1501603393.63,8578,26.81,75080.0,19.49,-12.93,-12.89,0,*71
1501603394.85,8579,26.81,75078.3,19.53,-12.89,-12.75,0,*73
1501603396.05,8580,26.81,75080.5,19.53,-12.89,-12.89,0,*76
1501603397.25,8581,26.81,75082.3,19.49,-12.97,-12.89,0,*73
1501603398.45,8582,26.81,75082.5,19.49,-12.97,-12.97,0,*7F
1501603399.71,8583,26.81,75076.3,19.49,-12.61,-12.53,0,*7F
1501603400.93,8584,26.81,75078.5,19.49,-12.07,-12.03,0,*7D
1501603402.19,8585,26.81,75078.5,19.49,-12.07,-11.93,0,*76
1501603403.42,8586,26.81,75082.5,19.53,-12.21,-12.11,0,*73
1501603404.64,8587,26.81,75076.0,19.53,-12.15,-12.03,0,*76
1501603405.87,8588,26.81,75078.8,19.53,-12.25,-12.07,0,*7E
1501603407.11,8589,26.81,75076.8,19.53,-11.97,-11.89,0,*70
1501603408.34,8590,26.81,75076.3,19.53,-12.21,-12.15,0,*70
1501603409.56,8591,26.81,75074.3,19.53,-12.07,-12.03,0,*72
1501603410.79,8592,26.81,75076.8,19.53,-12.07,-12.03,0,*71
1501603412.01,8593,26.81,75078.5,19.55,-12.47,-12.47,0,*72
1501603413.25,8594,26.81,75076.0,19.55,-12.47,-12.57,0,*74
1501603414.53,8595,26.81,75076.0,19.55,-12.75,-12.71,0,*70
1501603415.78,8596,26.81,75080.5,19.55,-12.57,-12.47,0,*76
1501603417.01,8597,26.81,75076.0,19.55,-12.21,-12.29,0,*7E
1501603418.24,8598,26.81,75076.8,19.55,-12.21,-12.21,0,*79
1501603419.49,8599,26.81,75076.8,19.57,-11.97,-11.97,0,*7A
1501603420.74,8600,26.81,75078.0,19.55,-12.15,-12.03,0,*7C
1501603422.0,8601,26.81,75078.0,19.55,-12.57,-12.57,0,*7A
1501603423.23,8602,26.81,75082.8,19.55,-12.93,-12.93,0,*79
1501603424.44,8603,26.81,75076.0,19.55,-13.15,-13.07,0,*7B
1501603425.72,8604,26.81,75076.0,19.55,-12.83,-12.71,0,*72
1501603426.94,8605,26.81,75080.3,19.55,-12.93,-12.89,0,*75
1501603428.19,8606,26.81,75078.5,19.55,-12.93,-12.83,0,*7C
1501603429.44,8607,26.81,75078.5,19.55,-12.93,-12.83,0,*7D
1501603430.69,8608,26.81,75076.0,19.55,-12.47,-12.35,0,*76
1501603431.91,8609,26.81,75076.3,19.53,-12.03,-11.89,0,*75
1501603433.16,8610,26.81,75080.3,19.53,-11.89,-11.85,0,*70
1501603434.4,8611,26.81,75076.8,19.53,-12.61,-12.57,0,*78
1501603435.62,8612,26.81,75082.3,19.55,-12.29,-12.21,0,*70
1501603436.87,8613,26.81,75078.5,19.55,-12.03,-11.89,0,*78
1501603438.12,8614,26.81,75080.0,19.55,-12.07,-12.03,0,*7A
1501603439.32,8615,26.81,75082.3,19.57,-12.39,-12.39,0,*7D
1501603440.51,8616,26.81,75082.3,19.57,-12.39,-12.29,0,*7F
1501603441.73,8617,26.81,75080.5,19.57,-12.11,-12.03,0,*7C
1501603442.94,8618,26.81,75082.3,19.57,-12.21,-12.03,0,*70
1501603444.19,8619,26.81,75080.3,19.55,-12.43,-12.35,0,*72
1501603445.38,8620,26.81,75080.3,19.57,-12.39,-12.25,0,*76
1501603446.63,8621,26.81,75080.3,19.57,-11.97,-11.93,0,*7E
1501603447.85,8622,26.81,75082.3,19.55,-12.47,-12.47,0,*7B
1501603449.04,8623,26.81,75080.8,19.57,-12.43,-12.43,0,*78
1501603450.31,8624,26.81,75080.0,19.55,-12.07,-12.15,0,*7E
1501603451.56,8625,26.81,75076.0,19.55,-12.21,-12.15,0,*7B
1501603452.79,8626,26.81,75080.5,19.57,-12.43,-12.35,0,*7C
1501603454.06,8627,26.81,75080.3,19.59,-12.79,-12.71,0,*7A
1501603455.34,8628,26.81,75076.3,19.55,-12.75,-12.71,0,*75
1501603456.58,8629,26.81,75080.3,19.57,-12.57,-12.65,0,*73
1501603457.83,8630,26.81,75076.0,19.57,-12.79,-12.79,0,*7A
1501603459.05,8631,26.81,75078.8,19.57,-12.53,-12.39,0,*77
1501603460.3,8632,26.81,75078.8,19.57,-12.11,-12.15,0,*7C
1501603461.52,8633,26.81,75080.0,19.57,-12.11,-12.03,0,*7A
1501603462.77,8634,26.81,75078.8,19.59,-12.11,-12.03,0,*73
1501603464.01,8635,26.81,75078.0,19.57,-11.97,-11.97,0,*7F
1501603465.23,8636,26.81,75078.3,19.57,-12.15,-12.03,0,*7B
1501603466.43,8637,26.81,75080.3,19.57,-12.03,-12.03,0,*7D
1501603467.65,8638,26.81,75082.0,19.57,-11.97,-12.03,0,*7C
1501603468.85,8639,26.81,75080.3,19.57,-12.03,-12.03,0,*73
1501603470.11,8640,26.81,75078.8,19.59,-12.15,-12.15,0,*73
1501603471.38,8641,26.81,75078.3,19.59,-11.73,-11.67,0,*77
1501603472.65,8642,26.81,75076.3,19.59,-12.53,-12.65,0,*74
1501603473.87,8643,26.81,75082.8,19.59,-12.25,-12.25,0,*70
1501603475.11,8644,26.81,75078.0,19.59,-12.25,-12.15,0,*74
1501603476.33,8645,26.81,75076.5,19.59,-12.03,-12.03,0,*76
1501603477.58,8646,26.81,75078.5,19.61,-12.65,-12.75,0,*7F
1501603478.84,8647,26.81,75080.3,19.59,-12.65,-12.65,0,*74
1501603480.07,8648,26.81,75080.3,19.59,-12.29,-12.29,0,*7B
1501603481.33,8649,26.81,75080.3,19.59,-12.65,-12.65,0,*7A
1501603482.58,8650,26.81,75078.8,19.59,-12.89,-12.71,0,*75
1501603483.85,8651,26.81,75076.0,19.59,-12.71,-12.79,0,*7B
1501603485.1,8652,26.81,75078.0,19.57,-12.53,-12.53,0,*7E
1501603486.35,8653,26.81,75076.3,19.55,-12.35,-12.29,0,*70
1501603487.59,8654,26.81,75076.3,19.57,-12.71,-12.65,0,*7D
1501603488.81,8655,26.81,75080.5,19.57,-12.97,-12.83,0,*7C
1501603490.04,8656,26.81,75076.3,19.55,-12.93,-12.93,0,*78
1501603491.25,8657,26.81,75076.8,19.59,-13.11,-13.15,0,*71
1501603492.53,8658,26.81,75080.3,19.55,-12.75,-12.83,0,*7F
1501603493.78,8659,26.81,75082.5,19.55,-12.89,-12.75,0,*74
1501603495.06,8660,26.81,75082.5,19.55,-12.71,-12.71,0,*7D
1501603496.31,8661,26.81,75078.0,19.57,-12.71,-12.71,0,*7E
1501603497.53,8662,26.81,75076.3,19.55,-12.89,-12.93,0,*74
1501603498.8,8663,26.81,75080.5,19.55,-12.61,-12.71,0,*7F
1501603500.08,8664,26.81,75078.3,19.55,-12.71,-12.71,0,*79
1501603501.33,8665,26.81,75078.0,19.53,-12.75,-12.75,0,*7E
1501603502.58,8666,26.81,75078.0,19.53,-12.71,-12.71,0,*7D
1501603503.81,8667,26.88,75082.5,19.53,-12.47,-12.57,0,*7D
1501603505.03,8668,26.81,75078.5,19.53,-12.15,-12.29,0,*7C
1501603506.26,8669,26.81,75078.0,19.53,-12.29,-12.35,0,*7F
1501603507.48,8670,26.81,75076.0,19.53,-12.35,-12.47,0,*7F
1501603508.73,8671,26.88,75082.0,19.53,-12.75,-12.83,0,*72
1501603509.98,8672,26.81,75076.5,19.53,-12.71,-12.75,0,*7C
1501603511.22,8673,26.88,75080.5,19.53,-12.75,-12.83,0,*70
1501603512.42,8674,26.81,75080.5,19.53,-12.43,-12.47,0,*7A
1501603513.67,8675,26.81,75078.5,19.49,-12.79,-12.75,0,*78
1501603514.89,8676,26.81,75076.8,19.53,-12.43,-12.57,0,*79
1501603516.09,8677,26.81,75078.8,19.53,-12.21,-12.29,0,*75
1501603517.32,8678,26.81,75076.0,19.53,-12.35,-12.43,0,*73
1501603518.56,8679,26.81,75076.5,19.53,-12.57,-12.83,0,*7A
1501603519.78,8680,26.81,75078.0,19.53,-12.93,-13.01,0,*7F
1501603521.02,8681,26.81,75076.3,19.53,-12.57,-12.61,0,*71
1501603522.28,8682,26.88,75080.3,19.49,-12.11,-12.11,0,*7C
1501603523.5,8683,26.81,75076.3,19.53,-12.15,-12.29,0,*79
1501603524.74,8684,26.81,75076.8,19.53,-12.61,-12.83,0,*7D
1501603525.94,8685,26.81,75076.3,19.49,-12.93,-13.07,0,*77
1501603527.19,8686,26.81,75078.8,19.53,-12.71,-12.75,0,*77
1501603528.42,8687,26.81,75076.8,19.53,-12.15,-12.29,0,*7D
1501603529.64,8688,26.88,75080.8,19.49,-12.03,-12.07,0,*72
1501603530.89,8689,26.81,75080.5,19.49,-11.63,-11.81,0,*7B
1501603532.13,8690,26.81,75082.3,19.53,-11.73,-11.85,0,*7D
1501603533.37,8691,26.88,75082.3,19.53,-11.73,-11.85,0,*7C
1501603534.64,8692,26.88,75080.3,19.55,-11.85,-11.97,0,*73
1501603535.87,8693,26.81,75080.8,19.53,-11.89,-12.03,0,*76
1501603537.14,8694,26.88,75080.8,19.55,-11.85,-11.97,0,*75
1501603538.41,8695,26.81,75078.5,19.55,-12.07,-12.07,0,*77
1501603539.65,8696,26.81,75080.0,19.55,-12.43,-12.61,0,*74
1501603540.93,8697,26.81,75078.5,19.55,-12.57,-12.71,0,*71
1501603542.15,8698,26.81,75076.0,19.55,-12.89,-13.07,0,*7D
1501603543.4,8699,26.81,75082.0,19.55,-12.29,-12.57,0,*72
1501603544.61,8700,26.81,75080.0,19.55,-13.19,-13.47,0,*71
1501603545.86,8701,26.88,75082.0,19.55,-13.43,-13.61,0,*7B
1501603547.11,8702,26.88,75082.8,19.53,-13.83,-14.05,0,*77
1501603548.31,8703,26.81,75078.5,19.49,-13.23,-13.47,0,*76
1501603549.51,8704,26.88,75080.8,19.49,-12.97,-13.11,0,*7C
1501603550.71,8705,26.81,75078.8,19.49,-12.93,-13.11,0,*79
1501603551.96,8706,26.81,75080.5,19.53,-12.57,-12.71,0,*7E
1501603553.16,8707,26.81,75078.3,19.49,-12.93,-13.07,0,*7C
1501603554.43,8708,26.81,75082.3,19.47,-12.83,-13.01,0,*7A
1501603555.65,8709,26.81,75080.3,19.47,-12.97,-13.15,0,*7B
1501603556.87,8710,26.88,75082.0,19.45,-13.15,-13.33,0,*7E
1501603558.11,8711,26.81,75080.3,19.47,-13.11,-13.29,0,*72
1501603559.35,8712,26.88,75082.3,19.47,-13.11,-13.29,0,*71
1501603560.55,8713,26.81,75080.3,19.45,-13.07,-13.43,0,*79
1501603561.79,8714,26.88,75080.0,19.47,-13.11,-13.37,0,*78
1501603563.01,8715,26.81,75078.8,19.47,-12.97,-13.11,0,*72
1501603564.23,8716,26.81,75078.3,19.45,-12.83,-13.07,0,*71
1501603565.45,8717,26.81,75076.3,19.45,-13.01,-13.07,0,*7B
1501603566.69,8718,26.81,75078.5,19.45,-12.83,-13.01,0,*79
1501603567.93,8719,26.88,75080.5,19.47,-12.83,-13.11,0,*7B
1501603569.16,8720,26.88,75082.3,19.49,-13.11,-13.33,0,*75
1501603570.4,8721,26.81,75080.3,19.47,-13.79,-13.93,0,*7E
1501603571.61,8722,26.81,75082.8,19.43,-13.47,-13.69,0,*71
1501603572.86,8723,26.81,75082.3,19.43,-13.29,-13.47,0,*74
1501603574.07,8724,26.81,75078.5,19.45,-12.89,-13.01,0,*7C
1501603575.33,8725,26.88,75080.8,19.43,-13.19,-13.33,0,*72
1501603576.55,8726,26.81,75078.5,19.43,-12.97,-13.07,0,*71
1501603577.83,8727,26.81,75076.5,19.43,-13.29,-13.29,0,*78
1501603579.07,8728,26.88,75080.8,19.43,-12.97,-13.01,0,*79
1501603580.27,8729,26.81,75078.8,19.41,-13.11,-13.23,0,*75
1501603581.52,8730,26.81,75078.0,19.43,-13.19,-13.29,0,*7D
1501603582.74,8731,26.81,75076.0,19.43,-13.07,-13.15,0,*7C
1501603583.95,8732,26.88,75080.0,19.41,-12.89,-12.89,0,*7E
1501603585.17,8733,26.81,75078.8,19.45,-12.89,-12.83,0,*71
1501603586.37,8734,26.81,75078.3,19.45,-12.97,-12.89,0,*73
1501603587.59,8735,26.88,75078.3,19.43,-13.07,-13.07,0,*7B
1501603588.82,8736,26.81,75076.5,19.43,-12.47,-12.47,0,*78
1501603590.07,8737,26.81,75076.8,19.43,-12.57,-12.47,0,*78
1501603591.32,8738,26.88,75080.8,19.43,-12.35,-12.29,0,*7B
1501603592.6,8739,26.81,75076.5,19.43,-12.57,-12.75,0,*77
1501603593.85,8740,26.88,75082.3,19.43,-12.71,-12.89,0,*7E
1501603595.1,8741,26.88,75076.8,19.43,-12.89,-13.01,0,*79
1501603596.32,8742,26.81,75078.5,19.43,-13.07,-13.07,0,*7B
1501603597.51,8743,26.88,75076.8,19.45,-13.07,-12.97,0,*74
1501603598.74,8744,26.88,75078.5,19.43,-12.89,-12.89,0,*7D
1501603599.99,8745,26.81,75078.8,19.43,-12.97,-13.01,0,*72
1501603601.21,8746,26.81,75078.0,19.43,-12.89,-12.97,0,*70
1501603602.46,8747,26.81,75078.5,19.43,-12.83,-12.89,0,*74
1501603603.75,8748,26.88,75078.5,19.43,-12.75,-12.71,0,*75
1501603605.02,8749,26.88,75080.0,19.43,-12.71,-12.75,0,*74
1501603606.25,8750,26.88,75078.5,19.43,-12.97,-12.97,0,*78
1501603607.48,8751,26.88,75080.3,19.43,-12.89,-12.89,0,*79
1501603608.73,8752,26.88,75078.0,19.45,-12.75,-12.75,0,*7C
1501603609.93,8753,26.88,75078.0,19.41,-12.89,-12.89,0,*79
1501603611.16,8754,26.81,75076.5,19.43,-12.97,-12.97,0,*7C
1501603612.45,8755,26.88,75078.0,19.43,-12.75,-12.71,0,*79
1501603613.65,8756,26.88,75080.8,19.41,-12.93,-12.89,0,*77
1501603614.93,8757,26.81,75076.0,19.43,-12.75,-12.71,0,*7B
1501603616.21,8758,26.88,75078.5,19.43,-12.61,-12.57,0,*75
1501603617.48,8759,26.88,75076.0,19.43,-12.83,-12.75,0,*78
1501603618.68,8760,26.81,75078.0,19.41,-13.11,-13.07,0,*7E
1501603619.91,8761,26.88,75078.0,19.41,-12.89,-12.79,0,*77
1501603621.16,8762,26.81,75078.8,19.41,-12.75,-12.65,0,*7A
1501603622.43,8763,26.88,75080.3,19.43,-12.71,-12.61,0,*79
1501603623.68,8764,26.88,75076.8,19.41,-12.61,-12.53,0,*7C
1501603624.93,8765,26.88,75078.3,19.41,-12.65,-12.65,0,*7C
1501603626.18,8766,26.88,75082.5,19.43,-12.89,-12.75,0,*7E
1501603627.43,8767,26.81,75072.5,19.43,-12.89,-12.83,0,*76
1501603628.68,8768,26.88,75078.5,19.43,-13.47,-13.33,0,*70
1501603629.91,8769,26.88,75082.5,19.41,-13.37,-13.23,0,*75
1501603631.15,8770,26.88,75076.8,19.43,-13.19,-13.01,0,*73
1501603632.36,8771,26.88,75080.3,19.41,-13.51,-13.47,0,*7E
1501603633.58,8772,26.88,75078.0,19.41,-13.87,-13.65,0,*76
1501603634.81,8773,26.88,75076.5,19.41,-13.37,-13.23,0,*7E
1501603636.03,8774,26.88,75078.8,19.39,-13.15,-13.11,0,*77
1501603637.28,8775,26.88,75078.8,19.37,-12.83,-12.71,0,*71
1501603638.53,8776,26.88,75078.5,19.39,-12.97,-12.79,0,*71
1501603639.73,8777,26.88,75078.3,19.37,-13.15,-12.97,0,*75
1501603640.98,8778,26.88,75076.5,19.39,-13.37,-13.07,0,*7C
1501603642.19,8779,26.88,75076.8,19.39,-13.15,-13.07,0,*7D
1501603643.41,8780,26.81,75076.3,19.37,-13.79,-13.69,0,*77
1501603644.63,8781,26.88,75078.3,19.37,-13.79,-13.51,0,*7D
1501603645.88,8782,26.88,75080.3,19.35,-13.19,-13.01,0,*7F
1501603647.1,8783,26.88,75080.8,19.37,-13.29,-13.07,0,*79
1501603648.33,8784,26.88,75078.8,19.37,-12.97,-12.83,0,*77
1501603649.55,8785,26.88,75078.0,19.37,-13.43,-13.29,0,*7F
1501603650.83,8786,26.88,75078.5,19.35,-14.01,-13.97,0,*7A
1501603652.1,8787,26.88,75080.0,19.35,-13.87,-13.61,0,*7B
1501603653.38,8788,26.88,75076.0,19.35,-14.01,-13.87,0,*75
1501603654.6,8789,26.88,75076.3,19.33,-13.93,-13.79,0,*7F
1501603655.8,8790,26.88,75076.8,19.33,-13.23,-13.07,0,*75
1501603657.01,8791,26.88,75078.0,19.33,-13.93,-13.79,0,*76
1501603658.23,8792,26.88,75078.0,19.27,-13.83,-13.69,0,*70
1501603659.46,8793,26.88,75078.8,19.27,-12.93,-12.79,0,*71
1501603660.68,8794,26.88,75078.8,19.31,-13.51,-13.29,0,*7A
1501603661.87,8795,26.88,75076.5,19.31,-13.23,-13.15,0,*71
1501603663.09,8796,26.88,75078.8,19.31,-13.37,-13.19,0,*7B
1501603664.32,8797,26.88,75078.0,19.27,-14.37,-13.97,0,*7C
1501603665.57,8798,26.88,75074.5,19.25,-14.19,-14.01,0,*75
1501603666.83,8799,26.88,75080.8,19.25,-14.15,-14.01,0,*78
1501603668.07,8800,26.88,75076.5,19.25,-13.43,-13.29,0,*7E
1501603669.31,8801,26.88,75078.3,19.23,-13.37,-13.33,0,*71
1501603670.52,8802,26.88,75076.3,19.23,-13.33,-13.07,0,*71
1501603671.74,8803,26.88,75078.0,19.25,-13.43,-13.23,0,*77
1501603672.98,8804,26.88,75072.5,19.23,-13.37,-13.29,0,*7F
1501603674.17,8805,26.81,75072.8,19.23,-13.15,-12.93,0,*7E
1501603675.42,8806,26.88,75074.3,19.21,-13.37,-13.19,0,*7C
1501603676.65,8807,26.88,75076.0,19.23,-13.33,-13.19,0,*7B
1501603677.89,8808,26.88,75078.0,19.21,-13.07,-12.79,0,*76
1501603679.14,8809,26.88,75076.3,19.21,-13.33,-13.19,0,*77
1501603680.38,8810,26.88,75076.8,19.21,-13.37,-13.15,0,*77
1501603681.58,8811,26.88,75076.0,19.19,-13.19,-13.11,0,*75
1501603682.78,8812,26.88,75078.3,19.19,-13.23,-12.97,0,*70
1501603684.03,8813,26.88,75076.0,19.21,-13.37,-13.19,0,*78
1501603685.28,8814,26.88,75078.3,19.21,-13.51,-13.37,0,*73
1501603686.54,8815,26.88,75074.5,19.21,-13.37,-13.37,0,*72
1501603687.76,8816,26.88,75076.0,19.19,-13.79,-13.65,0,*77
1501603688.98,8817,26.88,75078.5,19.19,-12.93,-12.83,0,*7A
1501603690.25,8818,26.88,75078.0,19.17,-13.37,-13.29,0,*75
1501603691.45,8819,26.88,75078.0,19.15,-13.23,-13.11,0,*78
1501603692.69,8820,26.88,75080.5,19.17,-12.89,-12.83,0,*7B
1501603693.91,8821,26.88,75076.5,19.15,-13.01,-12.97,0,*7C
1501603695.13,8822,26.88,75076.0,19.17,-13.47,-13.43,0,*77
1501603696.34,8823,26.88,75078.3,19.17,-13.47,-13.43,0,*76
1501603697.53,8824,26.88,75076.8,19.15,-13.73,-13.69,0,*7C
1501603698.72,8825,26.88,75076.8,19.15,-13.55,-13.43,0,*71
1501603699.94,8826,26.88,75080.3,19.17,-13.23,-13.11,0,*76
1501603701.15,8827,26.88,75082.0,19.15,-13.11,-13.01,0,*75
1501603702.39,8828,26.88,75082.0,19.15,-12.61,-12.57,0,*7E